Temp
3 3 3 3 3 3 3 3 3 4 4 4 5 5 5 5 6 7 7 8 8 8 9 10 11 10 10 10 10 10 10 8 8 9 10 11 11 13 13 14 9 8 7 7 8 9 9 12 12 13 13 12 13 12
2 2 3 3 3 3 3 3 3 3 3 3 3 3 3 4 4 5 6 7 7 7 8 8 9 10 9 10 9 9 10 10 9 9 9 10 10 11 12 11 13 11 12 11 10 10 12 12 14 13 12 11 11 11
2 2 2 2 3 2 3 3 3 3 3 3 3 3 3 3 3 3 4 4 5 5 7 7 8 9 9 8 8 8 9 10 10 10 8 9 9 10 9 10 11 13 13 12 10 12 12 12 14 12 7 9 8 7
1 1 2 2 2 2 2 2 2 2 2 2 2 2 2 3 3 3 3 4 4 4 5 7 8 8 8 8 7 8 9 9 8 8 7 7 7 10 9 9 9 11 11 11 11 11 11 9 4 4 6 4 3 4
1 1 1 1 1 1 2 2 2 2 2 2 2 2 2 2 3 4 3 3 3 4 5 5 4 7 7 7 7 7 7 6 7 7 6 6 7 7 7 7 7 7 6 7 7 5 6 4 2 2 2 2 2 2
1 1 1 1 1 1 1 1 1 1 1 2 2 2 2 2 2 3 4 2 2 2 3 4 6 6 6 6 6 6 6 6 6 6 6 6 7 6 7 6 3 3 2 2 2 3 1 2 2 2 2 1 1 1
0 0 1 1 1 1 1 1 1 1 1 1 1 2 2 2 2 2 3 2 2 3 3 4 4 5 5 5 5 5 5 5 5 6 5 6 6 6 6 3 2 2 3 3 2 3 3 1 1 0 0 0 1 1
-0 -0 0 0 1 1 1 1 1 1 1 1 1 2 2 2 2 2 2 2 2 2 3 3 4 5 4 5 5 4 5 4 5 5 5 6 6 5 4 2 3 3 2 2 1 1 -0 -0 0 -0 3 3 2 2
-0 -0 -0 0 0 0 1 1 1 1 1 1 2 3 2 2 2 2 2 1 1 2 3 3 3 3 4 4 3 3 4 4 5 4 5 5 5 3 2 2 2 3 2 1 -1 -1 -0 0 2 3 3 3 3 3
-0 -0 -0 -0 -0 0 0 0 0 1 1 2 2 2 2 1 2 2 2 2 2 1 1 2 3 2 3 4 3 3 3 2 1 4 4 2 2 1 0 1 1 0 -1 -1 -1 0 2 2 2 2 2 2 2 3
-1 -0 -0 -0 -0 0 0 0 0 0 1 1 1 1 1 2 1 2 1 2 2 2 2 2 2 2 2 2 2 2 2 2 0 2 1 2 1 0 1 1 1 1 1 1 1 2 2 2 2 2 2 3 3 3
-1 -1 -1 -0 -0 0 0 0 0 0 0 1 0 0 0 0 -0 -0 1 2 1 2 1 1 1 2 2 2 2 1 1 -1 -1 0 -1 -0 -0 -0 0 -1 -1 1 1 2 3 3 3 3 3 3 3 3 3 3
-1 -1 -0 -0 -0 0 0 0 0 0 0 0 0 -2 -2 -2 -4 -2 -1 0 1 1 0 0 -0 -0 1 1 1 1 1 -2 -1 -2 -2 -2 -1 -0 2 3 3 4 4 3 3 3 3 3 3 3 2 2 2 2
-1 -1 -1 -0 -0 -0 -0 0 0 0 0 -2 -3 -5 -4 -3 -1 -0 -0 -1 1 0 -1 -1 -1 -1 0 0 0 -0 -1 -3 -4 -3 -3 -2 1 3 3 2 2 1 1 1 1 2 1 1 1 1 1 1 1 1
-1 -1 -1 -1 -0 -0 -0 0 0 0 0 -3 -4 -5 -5 -1 -1 -0 -0 -1 -1 -1 -2 -3 -2 -0 -0 -0 0 -0 -5 -4 -2 -1 0 0 2 1 1 0 -1 -1 -1 -2 -0 -1 -1 -1 -1 -0 -0 0 -0 -0
-1 -1 -1 -1 -1 -0 -1 -1 -1 -0 -1 -4 -3 -5 -2 -3 -3 -3 -3 -3 -2 -2 -3 -1 -1 -1 -3 -2 -3 -4 -3 -4 -2 -0 -1 -3 -3 -2 -1 -1 -1 0 0 -0 -0 -0 -0 -0 -0 -0 -0 -0 -1 -1
-1 -1 -0 -1 -1 -1 -1 -1 -1 -2 -2 -2 -3 -2 -2 -3 -3 -2 -2 -2 1 -2 -4 -3 -5 -5 -6 -5 -4 -4 -5 -2 -3 -2 -3 -2 -3 -2 -3 -2 -2 -1 -1 -1 -1 -1 -1 -1 -2 -2 -3 -2 -2 -2
-2 -1 -1 -1 -1 -2 -2 -1 -2 -4 -4 -5 -3 -3 -2 -2 -3 -3 -1 -2 -3 -2 -3 -5 -4 -5 -6 -5 -5 -3 -4 -4 -2 -1 -1 -1 -1 -0 -0 -1 -1 -1 -1 -1 -2 -2 -2 -3 -3 -2 -2 -2 -2 -2
-1 -1 -1 -2 -2 -2 -2 -3 -2 -5 -6 -4 -4 -4 -3 -3 -1 -1 -1 -0 0 -1 -4 -5 -5 -7 -4 -3 -3 -2 -1 -2 -1 -0 -1 0 1 -0 -1 -1 -1 -2 -2 -3 -3 -2 -2 -2 -2 -2 -2 -2 -3 -3
-1 -1 -1 -1 -2 -2 -3 -2 -2 -2 -3 -4 -4 -5 -4 -4 -3 -3 -2 -2 -1 -2 -4 -6 -4 -1 -1 -0 -1 -1 -1 -2 -2 -1 -0 -1 -1 -1 -2 -2 -2 -2 -2 -2 -2 -2 -3 -3 -3 -3 -3 -3 -3 -3
-1 -1 -2 -2 -2 -2 -2 -5 -2 -3 -2 -3 -3 -3 -5 -3 -3 -6 -4 -4 -3 -3 -5 -3 -2 -1 1 1 1 1 -0 -0 -2 -2 -2 -3 -2 -2 -3 -3 -3 -4 -4 -4 -4 -4 -4 -4 -4 -4 -4 -4 -4 -4
-2 -2 -2 -2 -2 -3 -4 -3 -3 -3 -3 -3 -3 -4 -4 -4 -6 -5 -9 -6 -3 -5 -3 -2 -2 -2 -2 -2 -1 -1 -1 -2 -2 -3 -3 -3 -4 -4 -4 -4 -5 -5 -5 -5 -5 -5 -5 -5 -5 -5 -4 -5 -5 -5
-2 -2 -3 -2 -4 -4 -5 -4 -4 -4 -3 -5 -7 -5 -5 -6 -8 -10 -12 -9 -6 -3 -2 -2 -2 -1 -2 -2 -2 -2 -3 -3 -4 -4 -5 -5 -5 -5 -6 -6 -6 -6 -6 -6 -6 -6 -6 -6 -6 -6 -6 -6 -7 -7
-2 -3 -4 -5 -6 -6 -9 -6 -7 -5 -6 -6 -4 -9 -9 -10 -13 -11 -10 -7 -5 -2 -3 -2 -2 -4 -3 -4 -4 -4 -4 -5 -6 -6 -6 -7 -7 -6 -6 -7 -7 -7 -7 -7 -7 -7 -8 -8 -7 -7 -7 -8 -8 -8
-5 -6 -6 -7 -8 -8 -8 -8 -9 -8 -8 -8 -9 -11 -10 -13 -10 -10 -9 -6 -6 -7 -6 -4 -4 -4 -5 -5 -5 -5 -5 -6 -7 -7 -7 -7 -7 -7 -7 -7 -7 -7 -7 -8 -8 -8 -8 -8 -8 -8 -8 -8 -8 -8
-5 -6 -6 -6 -8 -7 -8 -9 -10 -10 -9 -10 -10 -11 -13 -11 -10 -10 -8 -7 -7 -7 -6 -5 -5 -6 -6 -6 -6 -7 -7 -8 -8 -8 -8 -8 -8 -8 -8 -8 -8 -8 -8 -8 -9 -8 -8 -8 -8 -8 -8 -8 -7 -7
-5 -6 -7 -5 -6 -7 -8 -10 -10 -9 -10 -11 -11 -10 -11 -10 -10 -7 -7 -5 -6 -5 -5 -6 -6 -6 -7 -7 -7 -8 -8 -8 -8 -9 -9 -9 -9 -8 -8 -8 -8 -8 -9 -9 -8 -8 -8 -8 -8 -8 -8 -8 -8 -8
-5 -6 -6 -7 -7 -7 -8 -9 -10 -10 -9 -8 -7 -9 -10 -8 -6 -6 -6 -6 -6 -6 -7 -7 -7 -7 -8 -8 -8 -9 -9 -9 -10 -10 -9 -9 -9 -9 -9 -10 -10 -10 -9 -9 -8 -8 -8 -8 -8 -8 -8 -8 -7 -7
-5 -6 -7 -8 -8 -8 -9 -7 -8 -7 -6 -7 -7 -6 -5 -5 -6 -6 -6 -7 -8 -8 -8 -8 -9 -10 -10 -10 -10 -10 -10 -11 -11 -11 -11 -11 -11 -11 -11 -11 -11 -10 -9 -9 -8 -8 -8 -7 -7 -7 -7 -8 -8 -8
-6 -7 -6 -11 -10 -9 -8 -8 -9 -10 -7 -7 -7 -8 -6 -6 -8 -8 -8 -8 -9 -10 -10 -9 -10 -11 -12 -12 -12 -12 -12 -11 -11 -11 -12 -12 -12 -12 -12 -11 -10 -10 -9 -9 -9 -9 -8 -8 -9 -9 -9 -9 -9 -9
-7 -7 -7 -8 -10 -10 -11 -11 -11 -11 -11 -13 -11 -10 -7 -8 -8 -9 -9 -10 -10 -11 -11 -11 -12 -12 -12 -13 -13 -13 -13 -12 -12 -12 -12 -13 -12 -12 -11 -10 -10 -9 -10 -9 -9 -9 -9 -10 -10 -10 -10 -10 -10 -9
-9 -9 -9 -9 -9 -11 -12 -13 -12 -12 -11 -12 -12 -12 -8 -7 -7 -8 -10 -9 -11 -11 -12 -12 -12 -13 -13 -13 -12 -13 -13 -13 -13 -13 -12 -12 -11 -11 -10 -9 -10 -10 -10 -9 -9 -9 -10 -10 -10 -10 -10 -10 -10 -9
-14 -13 -11 -9 -10 -11 -12 -12 -12 -13 -12 -11 -7 -8 -8 -7 -8 -8 -9 -10 -11 -12 -12 -13 -13 -13 -12 -12 -12 -12 -13 -13 -13 -12 -13 -11 -11 -10 -9 -10 -10 -10 -9 -9 -9 -10 -10 -10 -10 -9 -9 -9 -9 -9
Height
854 853 852 850 848 848 845 843 841 839 838 836 834 832 831 830 828 827 827 826 828 823 817 816 815 816 814 814 815 813 813 815 819 818 809 801 793 781 779 776 803 810 822 827 819 812 801 767 769 772 768 762 763 764
856 855 854 851 850 849 848 844 843 842 840 836 835 834 832 831 829 827 826 824 824 826 818 814 814 814 814 814 815 813 810 812 810 812 806 800 796 787 783 791 775 788 783 784 789 784 765 764 763 764 764 762 762 759
858 856 854 853 850 849 847 847 845 842 840 839 836 833 833 831 829 829 827 824 823 819 813 812 807 805 807 808 810 813 809 807 806 806 811 804 801 794 797 792 782 775 773 774 779 766 765 763 760 763 772 770 770 769
858 855 854 853 851 850 847 846 844 842 840 838 837 835 832 830 829 828 827 827 825 821 815 806 803 804 805 804 804 806 807 806 806 807 810 809 806 793 794 789 788 782 779 776 768 770 768 773 785 786 779 778 775 775
857 855 854 852 851 850 847 845 844 842 838 837 835 834 832 830 827 826 826 825 826 827 816 811 806 801 801 802 802 803 803 805 806 805 804 801 800 802 797 794 791 791 790 788 781 790 788 792 794 791 788 786 783 780
856 854 852 851 850 848 847 845 843 840 838 836 834 832 831 830 827 824 823 825 825 825 822 812 802 799 798 798 800 801 801 802 802 800 798 796 794 799 794 791 808 806 805 805 802 797 798 796 793 790 787 785 783 783
853 852 851 850 847 846 846 844 842 840 837 834 832 830 828 826 827 828 824 824 823 823 821 813 804 798 798 798 798 799 800 800 799 796 793 793 793 796 790 799 804 804 800 799 797 791 793 792 791 788 785 783 782 779
850 849 848 847 846 845 843 841 840 838 835 832 830 826 823 821 822 823 820 821 822 822 821 815 803 799 798 796 797 800 800 799 798 794 789 787 787 790 792 804 801 798 799 799 798 793 793 793 790 788 784 781 779 776
849 847 844 843 843 842 841 839 837 836 832 830 826 822 820 819 820 820 821 820 821 824 816 812 808 803 800 801 799 800 799 798 792 794 789 786 784 792 800 799 797 796 797 800 799 796 794 793 789 786 783 779 777 773
845 845 843 840 839 838 838 837 835 834 831 828 825 824 821 820 820 819 816 817 816 816 815 810 807 807 804 800 800 801 798 803 807 790 788 793 796 797 796 795 796 797 796 797 799 794 789 787 785 783 780 777 773 769
841 841 839 837 835 835 834 834 833 831 829 827 825 824 822 819 818 817 816 814 811 810 810 809 810 808 804 806 804 803 803 802 810 797 800 799 803 799 792 794 793 794 794 794 793 789 787 784 782 779 774 771 768 765
837 836 836 834 833 832 830 830 831 830 830 828 828 825 822 820 820 822 817 812 811 809 817 815 812 809 809 807 808 807 808 809 814 798 807 808 797 792 794 795 793 792 791 788 786 783 780 778 775 772 769 766 762 758
834 833 832 832 831 829 829 829 827 828 828 827 826 826 826 828 835 824 827 819 816 816 817 817 818 814 811 810 811 811 809 818 800 813 811 810 799 797 795 791 789 787 786 784 781 778 776 772 769 767 762 759 755 751
830 829 829 829 828 827 827 827 827 827 827 828 833 840 836 834 825 818 822 823 818 817 819 819 819 818 815 815 813 814 810 813 824 820 815 808 797 794 792 790 789 786 783 780 777 774 771 767 763 759 755 752 749 744
826 827 825 825 826 825 825 825 826 827 827 832 834 841 836 824 823 820 819 820 819 820 821 823 821 820 818 817 813 813 828 828 808 807 799 796 793 792 790 787 784 782 779 776 773 770 765 761 757 752 747 744 741 737
822 823 821 821 822 822 823 824 826 827 828 830 831 835 825 829 826 824 823 824 818 819 821 821 822 822 829 820 824 827 825 828 809 798 796 794 792 788 785 782 780 777 774 770 766 763 759 755 751 746 741 738 734 730
818 819 819 820 819 820 822 824 826 827 828 828 829 823 824 825 826 822 819 819 817 821 829 826 835 835 829 834 829 821 824 806 801 794 791 788 787 783 780 776 773 770 767 763 760 756 753 749 745 741 736 730 727 723
813 815 818 819 820 820 822 824 825 828 830 829 827 823 821 820 820 819 817 816 820 820 820 828 821 830 836 833 826 808 803 797 792 790 787 784 780 777 774 770 767 765 761 757 754 749 746 743 739 734 729 725 721 716
810 813 815 817 819 820 822 826 826 832 830 825 822 821 820 818 814 814 814 815 815 816 818 823 826 833 817 807 804 799 796 794 791 786 783 780 776 773 770 767 763 759 756 752 748 744 740 736 732 728 724 720 716 711
807 810 813 815 818 819 823 826 826 826 825 824 823 823 820 818 815 814 814 813 815 817 821 825 815 803 801 798 797 796 794 791 789 784 778 776 774 770 766 763 759 755 751 747 743 739 734 729 727 723 720 716 711 708
806 809 812 812 815 818 821 824 824 825 824 823 821 822 820 816 815 817 815 816 815 814 816 805 802 799 796 795 795 794 791 789 787 784 780 774 770 767 764 761 757 753 749 744 740 735 731 726 721 718 715 711 707 703
805 808 812 812 815 819 821 823 824 824 825 821 822 822 821 818 819 819 824 820 812 809 805 800 799 799 798 796 793 791 789 786 783 781 778 774 770 766 762 759 755 750 747 743 738 734 728 724 719 714 711 707 704 701
807 810 810 813 818 820 827 824 825 824 824 827 828 823 823 822 822 823 829 817 808 801 800 800 800 799 797 794 792 789 787 785 782 780 777 773 769 766 761 757 754 749 744 740 736 731 727 723 719 714 710 706 702 697
807 808 812 817 820 828 828 828 829 828 827 829 824 836 829 829 828 829 829 813 803 800 801 801 800 797 794 793 791 789 787 784 781 778 775 771 767 762 759 755 751 747 743 737 732 729 725 721 716 712 708 704 699 695
814 820 819 825 825 831 834 834 837 834 836 835 838 839 832 833 833 832 825 810 805 804 803 801 800 799 798 794 791 789 787 784 780 775 772 769 764 760 755 751 747 743 739 734 729 725 721 717 713 709 705 701 696 691
817 820 823 824 831 831 833 840 843 842 836 841 837 833 835 836 837 834 817 809 807 805 804 803 802 800 797 795 792 788 785 782 779 774 769 767 763 759 753 747 742 737 736 732 727 721 716 712 708 704 700 696 692 687
822 824 823 821 823 826 831 834 834 834 839 841 837 835 838 840 838 815 808 806 806 806 806 805 803 801 798 793 790 787 783 780 777 773 767 762 759 755 752 746 740 736 731 726 721 717 711 706 702 699 695 690 687 683
817 820 825 825 825 824 831 833 835 834 828 821 824 834 835 826 815 810 809 809 808 808 807 805 803 801 797 792 788 784 780 777 772 767 763 759 755 752 748 744 738 732 727 722 716 711 707 702 697 693 689 685 682 680
819 819 821 828 827 827 828 824 822 815 811 815 819 815 812 809 811 811 811 811 810 808 805 803 801 798 794 791 787 784 780 775 770 764 760 755 748 745 743 738 733 727 722 716 711 707 703 698 693 689 686 683 680 677
822 821 822 832 831 828 818 813 815 812 810 810 810 809 808 812 815 814 813 812 810 809 808 805 802 797 794 789 783 779 777 775 772 770 764 757 752 746 740 734 729 723 718 713 708 702 698 694 690 686 683 680 678 675
823 823 823 824 826 818 814 813 811 811 811 812 811 812 810 813 815 815 815 815 813 810 807 804 800 797 793 789 786 780 773 770 768 765 761 756 749 743 737 731 725 721 716 711 706 702 698 693 690 686 683 680 677 675
826 827 828 828 822 816 814 816 815 815 813 815 815 813 811 811 815 817 817 815 813 810 808 806 801 796 793 789 785 781 778 772 766 760 755 751 745 739 733 727 723 718 713 709 705 701 697 694 690 687 684 681 679 677
833 832 829 825 824 823 819 818 817 819 816 814 808 810 811 811 819 821 819 817 816 813 810 805 801 796 791 787 783 779 774 769 763 758 753 748 743 737 731 725 720 716 712 708 704 701 697 694 691 688 686 683 681 680
Wind_Speed
15 14 14 13 13 14 15 14 13 13 13 14 12 12 11 10 10 8 6 10 3 2 5 5 3 3 2 2 2 1 1 1 2 2 3 4 4 5 1 3 7 8 8 4 4 5 8 3 3 1 2 6 4 6
13 13 13 12 12 13 13 14 14 15 13 12 14 14 14 14 13 9 4 5 6 5 4 10 11 14 12 12 3 3 2 1 3 2 3 3 3 3 0 3 3 2 6 4 8 6 4 5 5 6 7 9 7 10
8 10 10 10 10 10 11 12 12 13 13 14 14 14 14 14 14 12 9 9 5 2 5 10 7 11 14 16 20 3 3 5 3 3 3 3 5 4 2 4 5 4 4 5 6 2 9 18 19 17 16 12 11 13
9 8 9 10 10 10 9 10 10 11 11 11 12 13 14 14 14 13 7 10 6 4 3 3 4 2 3 8 11 18 15 9 2 1 2 3 2 2 2 5 6 4 6 8 16 13 12 8 14 14 13 15 15 13
10 10 10 9 9 10 9 10 11 11 11 12 13 13 13 14 14 14 6 2 4 3 3 4 18 26 16 20 14 11 10 4 5 4 4 4 2 1 3 4 5 5 5 4 5 8 5 6 9 14 13 13 12 12
12 12 10 10 10 10 10 10 10 11 12 12 13 13 14 14 14 8 2 4 10 7 2 4 3 5 1 1 3 5 7 4 4 2 2 3 4 4 3 2 6 7 6 4 4 10 7 0 7 5 4 5 6 5
12 12 12 13 12 11 11 11 12 12 13 14 15 16 15 13 9 4 4 9 10 2 2 4 3 2 2 1 2 2 1 2 2 2 4 2 4 4 2 2 7 3 0 2 3 1 3 3 2 5 3 4 4 5
13 13 13 13 13 12 12 12 13 14 15 16 18 19 19 15 9 6 3 5 2 3 3 3 3 2 4 1 1 2 1 1 2 2 2 2 2 3 2 3 5 6 4 2 4 5 1 3 7 7 11 7 6 6
14 15 15 12 13 13 13 13 13 15 15 18 21 19 5 1 1 1 6 9 7 4 2 2 2 2 3 1 3 2 1 2 3 3 3 2 3 2 4 5 5 4 2 2 5 5 6 7 8 6 7 8 7 8
16 16 15 14 13 13 13 12 12 13 14 15 10 4 2 2 12 15 1 2 3 3 2 2 0 2 2 2 2 1 1 2 2 2 2 1 2 1 4 7 3 3 5 3 3 5 5 8 7 8 10 9 7 10
15 14 14 14 16 13 12 12 10 13 10 3 2 2 7 13 4 2 2 3 2 3 3 1 3 2 2 2 2 1 2 2 2 3 2 1 2 4 6 4 5 5 6 6 8 10 11 11 12 12 14 17 18 21
16 13 13 12 14 13 10 8 8 8 4 4 8 8 4 2 1 1 2 2 1 4 3 3 2 1 2 2 2 2 2 3 4 1 2 2 2 3 2 4 5 7 10 10 16 15 20 20 22 20 18 19 22 22
15 11 11 12 13 12 8 8 8 9 8 3 2 2 2 2 4 1 2 1 2 2 2 2 3 1 3 2 2 1 3 4 1 1 3 1 1 3 3 4 5 7 10 12 13 16 19 21 23 21 20 23 24 23
14 13 12 12 11 10 6 6 5 4 1 1 1 4 3 2 2 1 2 2 1 2 2 2 2 1 2 2 1 2 3 3 3 1 2 2 3 4 4 4 5 8 8 9 13 19 21 23 22 25 25 24 22 22
13 14 15 13 11 10 4 3 3 3 0 0 2 2 2 2 2 1 1 2 1 1 0 1 1 1 2 3 2 2 6 4 3 2 2 3 4 5 6 6 7 8 8 6 15 14 18 20 20 23 27 27 25 24
12 13 13 10 11 8 4 6 2 2 1 1 1 2 2 1 2 1 1 2 1 1 1 1 1 2 3 1 2 4 1 4 3 1 2 2 4 6 6 7 10 15 17 19 21 21 23 23 22 25 28 26 27 25
10 6 3 4 1 8 9 6 2 2 1 2 3 3 2 1 3 2 1 2 2 1 2 2 1 7 1 1 2 2 4 3 3 4 3 4 5 7 7 12 14 16 17 18 21 23 23 26 26 24 16 27 27 26
10 9 5 2 6 12 4 2 2 2 3 3 3 2 2 2 2 2 2 2 2 2 1 3 1 1 4 3 3 4 3 3 3 4 4 6 8 16 18 15 19 19 20 22 23 24 23 21 17 16 22 24 24 24
16 12 7 6 7 4 2 1 1 2 4 2 2 2 2 3 5 7 3 4 5 3 2 1 1 3 3 3 3 3 3 3 6 8 6 14 20 18 19 21 21 19 19 19 20 19 21 22 20 22 22 20 17 19
13 10 7 6 11 3 2 2 1 2 2 1 2 2 2 3 2 2 3 0 2 1 2 2 4 3 3 4 2 3 4 4 5 9 11 9 17 19 17 18 17 21 20 22 21 24 21 20 17 19 19 21 19 18
10 10 7 17 3 3 3 2 2 2 2 2 0 3 3 3 3 1 1 4 1 2 3 3 4 4 10 9 12 13 12 12 7 6 9 10 17 18 18 20 21 21 18 17 15 18 20 17 19 19 20 20 19 19
5 7 5 4 3 2 2 1 1 1 1 1 1 0 4 3 2 2 2 2 3 3 3 2 2 3 4 5 13 16 16 15 16 15 17 19 9 10 14 19 19 14 16 18 17 17 20 21 21 20 18 19 21 22
11 5 3 3 3 2 1 1 1 1 2 2 2 2 3 2 0 1 1 3 3 2 2 3 4 9 12 14 14 14 15 15 13 14 16 17 18 19 19 19 20 18 15 18 20 20 15 24 25 23 22 21 21 21
4 2 3 2 3 1 2 1 1 1 1 1 2 4 3 2 3 2 2 2 2 2 1 2 8 5 10 13 6 11 15 16 16 17 15 15 14 16 19 20 20 20 20 22 20 17 21 21 24 22 22 21 21 20
4 4 4 2 2 4 1 0 2 2 2 1 1 4 2 2 2 2 2 3 2 2 2 8 6 6 4 5 11 15 16 15 15 12 19 17 17 19 19 18 19 19 20 19 18 21 22 22 22 21 22 21 21 22
4 2 3 3 1 3 3 2 3 4 1 2 4 1 2 2 2 4 2 1 1 1 2 4 4 4 5 10 8 14 18 20 19 15 18 20 21 19 15 10 9 20 21 23 24 24 24 22 23 23 21 22 24 24
2 2 0 1 2 2 2 2 2 1 2 4 3 1 2 1 4 3 1 3 2 4 6 10 11 11 11 18 18 18 20 21 19 21 27 26 24 22 20 18 18 26 31 30 29 27 26 25 22 22 22 23 22 21
1 2 2 2 1 1 3 1 4 4 3 2 3 2 5 6 3 1 1 5 8 10 11 11 11 15 18 20 22 22 22 23 24 23 22 19 19 19 18 21 28 28 30 29 29 28 24 23 23 24 22 20 18 19
1 1 3 1 1 1 4 5 4 3 2 3 4 3 3 1 4 6 9 13 14 14 13 14 15 21 19 18 17 18 21 23 20 16 13 12 15 23 28 30 29 30 30 30 27 25 25 25 23 22 20 18 19 18
2 2 1 1 2 4 4 4 2 1 1 1 1 2 1 3 8 13 14 15 17 16 16 13 19 20 19 20 22 22 22 19 15 16 11 12 19 32 32 32 31 32 29 26 27 28 24 23 22 19 18 16 15 15
1 1 1 1 3 3 2 3 4 1 1 1 3 1 0 3 3 9 16 15 20 19 16 18 20 21 20 21 19 20 20 20 26 29 26 28 29 29 30 32 32 28 27 26 25 23 22 21 19 18 16 16 14 12
2 1 0 2 4 3 3 3 2 1 1 1 1 1 1 2 2 3 8 17 21 19 18 20 22 25 28 26 26 24 21 27 30 32 30 29 29 30 33 28 27 27 25 24 22 20 19 18 17 16 15 14 13 12
2 2 2 2 4 5 3 4 3 3 2 1 1 1 2 3 3 4 9 11 24 20 23 24 25 26 24 24 24 23 24 29 28 26 25 25 26 26 27 27 25 23 22 19 19 18 17 16 16 16 15 14 13 13
Wind_Direction
25 23 21 24 25 23 22 22 23 25 24 23 20 15 4 344 330 331 282 295 269 279 304 280 244 281 294 242 270 99 331 344 154 241 228 237 241 236 288 153 171 167 170 193 200 235 278 98 50 227 288 324 348 329
7 6 13 19 19 14 14 19 19 21 19 14 10 9 7 6 357 347 278 283 265 237 279 306 274 254 263 260 291 260 299 338 242 241 280 328 315 332 270 250 23 253 193 198 195 212 166 178 230 282 300 284 302 314
351 355 356 353 357 4 4 1 6 9 12 9 9 11 9 8 4 359 329 334 311 280 264 254 251 256 242 243 241 235 229 219 228 20 349 285 271 17 274 255 295 279 286 268 337 45 315 318 317 347 25 3 8 6
347 351 350 349 353 355 356 357 358 358 355 354 353 356 360 357 352 352 335 323 320 296 269 265 351 312 241 241 228 219 251 299 24 82 239 240 236 269 254 295 287 269 317 274 270 278 304 7 14 1 4 13 6 4
327 331 335 337 343 345 348 349 351 350 350 350 348 345 340 336 339 341 322 76 22 289 311 304 319 293 275 248 229 242 248 264 271 234 211 207 211 281 222 252 259 327 340 283 297 19 323 40 24 23 26 22 23 17
334 335 320 319 325 328 333 334 337 339 341 343 341 337 335 332 333 345 188 164 9 8 287 289 298 265 268 35 277 271 232 224 227 215 217 234 188 186 246 245 45 60 75 59 312 305 76 8 48 35 57 35 27 17
313 313 318 326 317 311 315 319 323 328 331 331 330 328 322 315 308 261 294 327 325 271 273 296 272 93 360 222 163 213 262 262 237 240 224 221 195 212 238 241 31 21 320 78 316 129 34 2 275 299 270 260 276 262
322 312 305 304 309 318 321 310 310 315 321 323 322 319 316 308 279 265 303 220 296 252 216 264 264 221 4 258 279 31 277 244 240 254 272 217 187 211 221 152 209 196 198 300 319 2 205 277 293 275 273 275 285 291
309 316 318 297 298 300 306 314 321 320 315 318 320 318 315 60 268 326 298 254 268 256 256 228 248 339 328 231 208 207 224 247 208 223 227 195 203 190 183 221 255 246 249 277 310 283 273 261 276 319 329 318 307 300
294 302 306 317 300 299 297 305 312 314 311 315 325 331 290 33 322 310 69 194 187 188 233 237 336 289 29 3 282 12 162 250 280 236 329 203 49 148 235 238 267 237 233 214 277 296 318 317 315 308 301 293 284 285
300 291 299 303 315 291 291 289 308 321 321 338 322 271 305 316 321 254 272 223 161 211 179 7 10 313 6 313 341 39 330 300 287 267 98 327 192 231 232 239 273 274 272 268 261 271 277 277 282 280 282 284 287 291
302 287 296 301 309 307 292 299 297 307 286 301 297 300 299 302 295 316 264 316 341 23 16 324 325 11 344 0 321 340 274 9 242 173 60 269 274 115 126 246 260 261 261 263 265 268 272 273 275 280 283 284 283 288
301 289 297 304 305 311 289 300 292 289 282 297 296 335 58 282 9 165 239 54 34 351 10 336 324 39 347 38 274 313 252 235 5 65 217 59 327 53 19 345 312 303 305 301 296 299 301 296 295 291 288 288 290 288
286 290 291 290 297 305 292 288 295 307 234 61 69 315 156 280 262 347 88 37 14 24 3 354 290 358 14 298 317 274 261 33 329 290 185 281 1 324 290 319 326 297 289 283 287 291 288 288 288 289 289 290 290 288
273 284 289 276 268 284 271 253 281 186 104 86 81 243 224 274 270 322 49 349 324 251 325 346 314 11 283 269 233 321 343 277 202 110 175 223 273 297 290 290 291 287 287 281 286 286 289 290 288 287 286 284 282 280
265 281 286 268 263 265 215 154 161 131 64 41 236 325 231 16 271 65 263 279 244 86 70 76 292 254 264 215 346 234 277 250 273 111 249 245 260 274 279 273 268 279 287 288 289 287 288 290 292 292 295 294 291 286
233 235 258 318 332 145 148 133 146 74 254 226 247 236 259 284 226 253 174 234 129 85 238 119 131 226 5 33 267 213 210 248 270 300 270 285 270 280 268 272 276 277 281 281 286 292 291 294 296 297 293 295 293 288
208 222 227 304 170 147 113 109 100 111 251 243 241 265 205 256 304 289 246 181 134 226 96 217 107 85 213 206 254 255 282 272 274 283 282 291 289 292 290 286 292 290 289 291 288 287 287 286 285 288 293 299 301 300
212 222 235 232 188 116 116 88 132 224 232 291 302 275 245 266 275 280 274 274 208 24 42 6 247 220 239 240 252 292 307 311 306 305 297 296 296 297 305 306 300 297 293 294 296 293 293 290 288 294 297 298 294 295
209 218 208 269 167 124 101 119 174 248 268 323 299 289 277 263 353 336 321 266 183 207 214 223 220 232 255 281 303 322 309 298 301 304 304 309 314 312 310 309 307 308 308 310 307 306 303 299 299 302 301 299 303 304
186 197 181 152 110 102 105 141 191 232 279 261 9 321 288 300 291 321 43 4 185 221 251 237 252 267 300 329 329 308 292 310 310 301 304 310 315 318 319 319 316 313 310 311 312 310 310 301 299 304 303 297 298 299
141 179 168 121 100 83 87 114 355 106 248 326 312 346 284 291 293 66 352 211 228 235 215 269 356 335 336 316 310 321 320 334 327 320 318 315 317 320 318 316 315 311 311 310 312 313 313 311 313 316 321 322 324 318
138 137 94 82 83 72 201 4 225 235 277 300 357 280 255 260 270 355 274 220 246 256 332 18 339 317 297 312 340 341 341 336 324 320 314 312 309 310 309 312 315 312 310 310 312 308 327 326 322 321 323 322 318 316
108 101 112 110 89 152 24 87 24 359 314 337 289 294 301 282 336 54 263 275 268 350 102 324 349 329 346 349 335 328 330 330 319 315 314 311 305 308 313 309 310 308 307 308 313 320 320 316 318 316 316 314 312 310
90 312 96 51 12 81 108 102 352 31 263 250 337 297 294 7 9 307 239 278 354 11 1 4 15 1 321 308 317 324 329 329 319 314 316 315 310 308 309 311 310 310 315 316 317 316 313 311 310 310 310 309 305 306
72 336 95 162 303 127 188 151 204 215 198 280 237 248 27 41 23 255 243 255 330 7 359 15 349 322 317 328 320 325 325 326 320 309 315 319 312 308 307 308 312 313 322 318 311 307 307 308 307 304 302 305 309 311
98 254 326 23 107 96 53 45 24 139 221 212 241 141 76 10 254 253 313 30 24 27 32 9 340 327 319 318 318 318 322 324 317 310 312 310 308 309 306 304 308 312 313 312 310 307 303 300 299 300 299 299 299 300
81 117 146 208 124 129 164 197 185 220 228 204 99 192 190 203 243 329 37 48 52 39 17 359 347 340 327 323 323 323 326 328 324 322 322 320 324 324 326 319 315 315 316 314 313 314 312 309 303 297 294 294 305 316
61 32 96 126 353 224 215 201 226 234 183 146 174 228 247 71 23 16 46 44 24 11 357 350 348 343 339 334 333 334 335 336 333 331 335 328 328 328 330 324 319 317 317 316 321 324 322 321 322 319 318 317 318 323
335 351 88 116 182 239 244 178 239 313 318 232 282 330 120 86 47 62 48 29 15 358 348 348 338 342 338 338 330 330 337 339 339 331 321 316 314 313 316 316 316 318 322 322 322 323 330 333 338 341 338 337 338 338
360 316 302 245 247 249 246 310 290 257 341 10 4 150 75 119 139 46 43 28 17 6 360 352 346 343 341 336 331 325 324 331 328 326 324 315 314 313 315 316 321 324 326 325 325 326 332 337 340 340 343 349 355 357
355 346 239 290 287 289 22 27 302 358 353 51 314 219 192 169 80 30 14 9 13 0 351 345 338 331 330 333 332 330 319 317 323 328 328 324 322 323 325 326 328 334 335 333 337 337 343 347 348 353 354 3 13 21
8 333 297 306 319 329 324 356 359 348 8 1 96 46 35 66 92 14 348 1 10 357 347 339 332 330 338 337 337 335 333 336 334 330 332 332 330 332 334 335 338 341 344 348 352 354 358 2 7 15 22 30 38 46